Вернуться в каталог

ONEWEB-0171

АктивенСвязьPO
NORAD 48070·PAYLOAD·🇬🇧 United Kingdom

Запущен Mar 25, 2021 с Vostochny Cosmodrome

Loading…

Ближайшие Пролёты (ближайшие 24 часа)

TLE

СвежийSource: CelesTrak SupGP

Эпоха: Sep 15, 2026, 05:15 UTC

1 48070C 21025AE  26258.21892778 -.00003279  00000+0 -89914-2 0  2589
2 48070  87.8909 302.3167 0001923  94.1292 296.1758 13.13468826    17

Отслеживайте ONEWEB-0171 в реальном времени с AllMySat

Download on the App Store